#timestamp,LO_Frequency,Hit,StdDev 
1456927215.2,286046997.3,N
1456927235.0,286046996.5,N
1456927235.9,286046996.5,N
1456927255.8,286047002.7,N
1456927275.6,286046998.3,N
1456927295.4,286046997.5,N
1456927315.3,286046995.3,N
1456927335.1,286046995.7,N
1456927336.0,286046995.7,N
1456927355.8,286046992.9,Y
1456927375.7,286046996.6,P
1456927395.5,286047002.7,P
1456927415.3,286047004.4,N
1456927435.2,286047005.2,N
1456927455.9,286047008.5,N
1456927475.7,286047009.1,N
1456927495.6,286047003.6,N
1456927515.4,286047004.3,N
1456927535.2,286047008.8,N
1456927555.0,286047009.5,N
1456927556.0,286047009.5,N
1456927575.8,286047012.1,N
1456927595.6,286047008.0,N
1456927615.4,286047006.8,N
1456927635.3,286047006.4,N
1456927655.1,286047007.9,N
1456927675.8,286047013.9,Y
1456927695.7,286047008.9,P
1456927715.5,286047007.6,P
1456927735.3,286047006.7,P
1456927755.2,286047010.5,Y
1456927775.0,286047001.5,P
1456927775.9,286047001.5,N
1456927795.7,286046997.9,N
1456927815.6,286046993.8,N
1456927835.4,286046996.0,N
1456927855.2,286046997.7,N
1456927875.1,286046996.7,N
1456927876.0,286046996.7,N
1456927895.8,286046999.2,N
1456927915.6,286046996.7,N
1456927935.5,286046997.8,N
1456927955.3,286046996.3,N
1456927975.1,286046999.3,N
1456927995.9,286046995.1,N
1456928015.7,286046995.9,N
1456928035.5,286046995.8,N
1456928055.4,286046994.5,N
1456928075.2,286046993.8,N
1456928095.0,286046996.2,N
1456928095.9,286046996.2,N
1456928115.8,286046994.3,N
1456928135.6,286046991.0,N
1456928155.4,286046991.2,N
1456928175.3,286046988.2,Y
1456928195.1,286046993.0,P
1456928196.0,286046993.0,P
1456928215.8,286046990.1,P
1456928235.7,286046990.5,Y
1456928255.5,286047002.2,P
1456928275.3,286047005.6,N
1456928295.1,286047006.0,N
1456928315.9,286047004.7,N
1456928335.7,286047006.7,N
1456928355.5,286047007.9,N
1456928375.4,286047010.1,N
1456928395.2,286047008.5,N
1456928415.0,286047007.6,N
1456928415.9,286047007.6,N
1456928435.8,286047006.4,N
1456928455.6,286047012.0,N
1456928475.4,286047011.2,N
1456928495.3,286047009.3,N
1456928515.1,286047008.2,N
1456928516.0,286047008.2,N
1456928535.8,286047008.8,N
1456928555.7,286047005.0,N
1456928575.5,286047005.4,N
1456928595.3,286047004.9,N
1456928615.1,286047003.0,N
1456928635.9,286047003.4,N
1456928655.7,286046999.7,N
1456928675.5,286047000.1,N
1456928695.4,286046999.7,N
1456928715.2,286047002.3,N
1456928735.0,286047002.8,N
1456928735.9,286047002.8,N
1456928755.8,286047001.5,N
1456928775.6,286047001.6,N
1456928795.4,286047002.5,N
1456928815.3,286047002.6,N
1456928835.1,286047001.5,N
1456928836.0,286047001.5,N
1456928855.8,286047001.0,N
1456928875.7,286046999.6,N
1456928895.5,286046999.5,N
1456928915.3,286047000.2,N
1456928935.2,286046999.8,N
1456928955.9,286046999.0,N
1456928975.7,286046999.4,N
1456928995.6,286047000.0,N
1456929015.4,286047000.9,N
1456929035.2,286047000.7,N
1456929055.0,286047002.3,N
1456929056.0,286047002.3,N
1456929075.8,286047002.0,N
1456929095.6,286047005.3,Y
1456929115.5,286047006.5,P
1456929135.3,286047008.6,P
1456929155.1,286047008.3,N
1456929175.8,286047005.6,N
1456929195.7,286047006.3,N
1456929215.5,286047008.1,Y
1456929235.3,286047001.6,P
1456929255.2,286046996.7,N
1456929275.0,286046995.5,N
1456929275.9,286046995.5,N
1456929295.7,286046997.7,N
1456929315.6,286046998.0,N
1456929335.4,286046993.4,N
1456929355.2,286046995.3,N
1456929375.1,286046992.3,N
1456929376.0,286046992.3,N
1456929395.8,286046985.7,Y
1456929415.6,286046989.8,P
1456929435.5,286046986.3,P
1456929455.3,286046983.0,P
1456929475.1,286046984.6,Y
1456929495.9,286046994.0,P
1456929515.7,286046991.7,P
1456929535.5,286046992.3,P
1456929555.4,286046989.0,Y
1456929575.2,286046997.4,P
1456929595.0,286046998.6,N
1456929595.9,286046998.6,N
1456929615.8,286046998.7,N
1456929635.6,286046994.9,N
1456929655.4,286046994.0,N
1456929675.3,286046993.5,N
1456929695.1,286046994.6,N
1456929715.8,286046995.3,N
1456929735.7,286046995.8,N
1456929755.5,286046993.4,N
1456929775.3,286046994.1,N
1456929795.2,286046994.5,N
1456929815.9,286046990.2,Y
1456929835.7,286046992.9,P
1456929855.6,286046991.5,P
1456929875.4,286046989.3,P
1456929895.2,286046990.2,Y
1456929915.1,286046999.1,P
1456929916.0,286046999.1,N
1456929935.8,286046995.4,N
1456929955.6,286046997.9,N
1456929975.5,286046997.1,N
1456929995.3,286046997.0,N
1456930015.1,286046996.8,N
1456930035.8,286046994.9,N
1456930055.7,286046993.4,Y
1456930075.5,286046999.9,P
1456930095.4,286047002.7,N
1456930115.2,286047002.2,N
1456930135.0,286047005.1,N
1456930135.9,286047005.1,N
1456930155.8,286047011.5,Y
1456930175.6,286047009.5,P
1456930195.4,286047011.9,P
1456930215.3,286047011.0,N
1456930235.1,286047012.0,Y
1456930236.0,286047012.0,P
1456930255.8,286047002.2,N
1456930275.7,286047003.0,N
1456930295.5,286047001.3,N
1456930315.3,286047004.7,N
1456930335.1,286047004.5,N
1456930355.9,286047008.7,N
1456930375.7,286047008.6,N
1456930395.5,286047009.1,N
1456930415.4,286047004.7,N
1456930435.2,286047003.0,N
1456930455.0,286047007.6,N
1456930455.9,286047007.6,N
1456930475.8,286047007.0,N
1456930495.6,286047004.7,N
1456930515.4,286047006.6,N
1456930535.3,286047008.2,N
1456930555.1,286047006.6,N
1456930556.0,286047006.6,N
1456930575.8,286047004.5,N
1456930595.7,286047007.0,N
1456930615.5,286047006.6,N
1456930635.3,286047005.0,N
1456930655.1,286047004.6,N
1456930675.9,286047003.3,N
1456930695.7,286047003.7,N
1456930715.5,286047005.7,N
1456930735.4,286047003.0,N
1456930755.2,286047004.5,N
1456930775.0,286047006.2,N
1456930775.9,286047006.2,N
1456930795.8,286047008.9,Y
